Monroe, MI

4:41 PM EDT on April 26, 2017 (GMT -0400)
Custer

Weather History for KTTF - May, 2014

Change the Weather History Date:

Monday, May 19, 2014

  Actual Average Record
Temperature  
Mean Temperature 56 °F -  
Max Temperature 69 °F 72 °F 91 °F (1934)
Min Temperature 42 °F 51 °F 30 °F (2002)
Degree Days  
Heating Degree Days 10    
Growing Degree Days 6 (Base 50)    
Moisture  
Dew Point 39 °F    
Average Humidity 55    
Maximum Humidity 81    
Minimum Humidity 31    
Precipitation  
Precipitation 0.00 in - - ()
Sea Level Pressure  
Sea Level Pressure 30.22 in    
Wind  
Wind Speed 3 mph (SSE)    
Max Wind Speed 12 mph    
Max Gust Speed 16 mph    
Visibility 10 miles    
Events      
Averages and records for this station are not official NWS values.
T = Trace of Precipitation, MM = Missing Value Source: NWS Daily Summary

Daily Weather History Graph

Daily Weather History Graph

Search for Another Location

Airport or City:

Trip Planner

Search our weather history database for the weather conditions in past years. The results will help you decide how hot, cold, wet, or windy it might be!

Date:

Astronomy

May. 19, 2014 Rise Set
Actual Time 6:09 AM EDT 8:51 PM EDT
Civil Twilight 5:37 AM EDT 9:23 PM EDT
Nautical Twilight 4:56 AM EDT 10:04 PM EDT
Astronomical Twilight 4:10 AM EDT 10:50 PM EDT
Moon 12:36 AM EDT (5/19) 11:07 AM EDT (5/19)
Length of Visible Light 15h 46m
Length of Day
14h 41m
Waning Gibbous, 71% of the Moon is Illuminated
May 19
Waning Gibbous
May 21
Last Quarter
May 28
New
Jun 5
First Quarter
Jun 13
Full

Hourly Weather History & Observations

Time (EDT) Temp. Dew Point Humidity Pressure Visibility Wind Dir Wind Speed Gust Speed Precip Events Conditions
12:15 AM 48.2 °F 37.4 °F 66% 30.23 in 10.0 mi SW 3.5 mph - N/A   Clear
12:35 AM 48.2 °F 37.4 °F 66% 30.23 in 10.0 mi Calm Calm - N/A   Clear
12:55 AM 51.8 °F 37.4 °F 58% 30.23 in 10.0 mi SW 3.5 mph - N/A   Clear
1:15 AM 48.2 °F 37.4 °F 66% 30.23 in 10.0 mi SW 3.5 mph - N/A   Clear
1:35 AM 48.2 °F 37.4 °F 66% 30.23 in 10.0 mi Calm Calm - N/A   Clear
1:55 AM 48.2 °F 37.4 °F 66% 30.23 in 10.0 mi Calm Calm - N/A   Clear
2:15 AM 48.2 °F 37.4 °F 66% 30.23 in 10.0 mi Calm Calm - N/A   Clear
2:36 AM 48.2 °F 37.4 °F 66% 30.23 in 10.0 mi Calm Calm - N/A   Clear
2:56 AM 48.2 °F 37.4 °F 66% 30.24 in 10.0 mi Calm Calm - N/A   Clear
3:16 AM 46.4 °F 37.4 °F 71% 30.24 in 10.0 mi Calm Calm - N/A   Clear
3:36 AM 44.6 °F 37.4 °F 76% 30.24 in 10.0 mi Calm Calm - N/A   Clear
3:56 AM 44.6 °F 37.4 °F 76% 30.25 in 10.0 mi Calm Calm - N/A   Clear
4:16 AM 44.6 °F 37.4 °F 76% 30.25 in 10.0 mi Calm Calm - N/A   Clear
4:31 AM 44.6 °F 37.4 °F 76% 30.25 in 10.0 mi Calm Calm - N/A   Clear
4:51 AM 46.4 °F 35.6 °F 66% 30.25 in 10.0 mi Calm Calm - N/A   Clear
5:11 AM 44.6 °F 37.4 °F 76% 30.26 in 10.0 mi Calm Calm - N/A   Clear
5:32 AM 42.8 °F 37.4 °F 81% 30.26 in 10.0 mi Calm Calm - N/A   Clear
5:52 AM 42.8 °F 37.4 °F 81% 30.27 in 10.0 mi Calm Calm - N/A   Clear
6:12 AM 42.8 °F 37.4 °F 81% 30.28 in 10.0 mi Calm Calm - N/A   Clear
6:32 AM 42.8 °F 37.4 °F 81% 30.28 in 10.0 mi Calm Calm - N/A   Clear
6:52 AM 44.6 °F 37.4 °F 76% 30.29 in 10.0 mi Calm Calm - N/A   Clear
7:12 AM 44.6 °F 39.2 °F 81% 30.29 in 10.0 mi Calm Calm - N/A   Clear
7:32 AM 46.4 °F 41.0 °F 81% 30.29 in 10.0 mi Calm Calm - N/A   Clear
7:52 AM 50.0 °F 42.8 °F 76% 30.30 in 10.0 mi Calm Calm - N/A   Clear
8:13 AM 53.6 °F 41.0 °F 62% 30.30 in 10.0 mi West 3.5 mph - N/A   Clear
8:33 AM 55.4 °F 39.2 °F 54% 30.30 in 10.0 mi West 4.6 mph - N/A   Clear
10:54 AM 64.4 °F 37.4 °F 37% 30.28 in 10.0 mi West 9.2 mph - N/A   Clear
11:14 AM 64.4 °F 37.4 °F 37% 30.28 in 10.0 mi WSW 5.8 mph - N/A   Clear
11:35 AM 64.4 °F 35.6 °F 34% 30.27 in 10.0 mi WSW 4.6 mph - N/A   Clear
11:55 AM 64.4 °F 35.6 °F 34% 30.27 in 10.0 mi Calm Calm - N/A   Clear
12:15 PM 66.2 °F 35.6 °F 32% 30.27 in 10.0 mi Calm Calm - N/A   Clear
12:35 PM 66.2 °F 35.6 °F 32% 30.29 in 10.0 mi South 3.5 mph - N/A   Clear
12:55 PM 66.2 °F 39.2 °F 37% 30.27 in 10.0 mi SSW 3.5 mph - N/A   Clear
1:15 PM 66.2 °F 37.4 °F 35% 30.25 in 10.0 mi SE 6.9 mph - N/A   Clear
1:36 PM 68.0 °F 37.4 °F 33% 30.25 in 10.0 mi South 3.5 mph 9.2 mph N/A   Clear
2:16 PM 68.0 °F 39.2 °F 35% 30.24 in 10.0 mi South 5.8 mph 16.1 mph N/A   Clear
2:36 PM 69.8 °F 39.2 °F 33% 30.24 in 10.0 mi SSE 5.8 mph - N/A   Clear
2:56 PM 69.8 °F 39.2 °F 33% 30.22 in 10.0 mi SSE 10.4 mph - N/A   Clear
3:16 PM 68.0 °F 37.4 °F 33% 30.22 in 10.0 mi SSE 11.5 mph - N/A   Clear
3:31 PM 69.8 °F 37.4 °F 31% 30.22 in 10.0 mi SE 8.1 mph - N/A   Clear
3:51 PM 68.0 °F 37.4 °F 33% 30.21 in 10.0 mi SE 6.9 mph - N/A   Clear
4:11 PM 68.0 °F 37.4 °F 33% 30.20 in 10.0 mi SSE 9.2 mph - N/A   Clear
4:32 PM 68.0 °F 39.2 °F 35% 30.20 in 10.0 mi SSE 8.1 mph - N/A   Clear
4:52 PM 68.0 °F 39.2 °F 35% 30.20 in 10.0 mi ESE 5.8 mph - N/A   Clear
5:12 PM 66.2 °F 39.2 °F 37% 30.20 in 10.0 mi SE 8.1 mph - N/A   Clear
5:32 PM 66.2 °F 37.4 °F 35% 30.19 in 10.0 mi East 6.9 mph - N/A   Clear
5:52 PM 66.2 °F 39.2 °F 37% 30.19 in 10.0 mi East 8.1 mph - N/A   Clear
6:12 PM 64.4 °F 39.2 °F 40% 30.18 in 10.0 mi East 5.8 mph - N/A   Clear
6:52 PM 64.4 °F 41.0 °F 42% 30.16 in 10.0 mi ESE 8.1 mph - N/A   Clear
7:12 PM 62.6 °F 42.8 °F 48% 30.16 in 10.0 mi ESE 8.1 mph - N/A   Clear
7:33 PM 62.6 °F 42.8 °F 48% 30.15 in 10.0 mi ESE 6.9 mph - N/A   Clear
7:53 PM 62.6 °F 42.8 °F 48% 30.14 in 10.0 mi East 5.8 mph - N/A   Clear
8:13 PM 62.6 °F 42.8 °F 48% 30.14 in 10.0 mi ESE 8.1 mph - N/A   Clear
8:33 PM 60.8 °F 44.6 °F 55% 30.14 in 10.0 mi ESE 8.1 mph - N/A   Clear
8:53 PM 60.8 °F 46.4 °F 59% 30.14 in 10.0 mi SE 4.6 mph - N/A   Clear
9:13 PM 60.8 °F 46.4 °F 59% 30.14 in 10.0 mi SE 8.1 mph - N/A   Clear
9:33 PM 59.0 °F 44.6 °F 59% 30.14 in 10.0 mi SE 5.8 mph - N/A   Clear
9:53 PM 57.2 °F 44.6 °F 63% 30.15 in 10.0 mi ESE 3.5 mph - N/A   Clear
10:13 PM 57.2 °F 44.6 °F 63% 30.15 in 10.0 mi ESE 3.5 mph - N/A   Clear
10:33 PM 57.2 °F 42.8 °F 59% 30.15 in 10.0 mi ESE 4.6 mph - N/A   Clear
10:54 PM 59.0 °F 42.8 °F 55% 30.15 in 10.0 mi ESE 4.6 mph - N/A   Clear
11:14 PM 59.0 °F 44.6 °F 59% 30.16 in 10.0 mi ESE 3.5 mph - N/A   Clear
11:34 PM 57.2 °F 46.4 °F 67% 30.19 in 10.0 mi Calm Calm - N/A   Clear
11:54 PM 57.2 °F 44.6 °F 63% 30.18 in 10.0 mi Calm Calm - N/A   Clear